Location: Chanteloup
(48.8560°N, 2.7390°E)
Time: 22:57:56
(UTC+00:00)

Cosmos 2322 Rocket - Pass Details

Date: 03 June 2022
Orbit: 833 x 851 km, 71.0° (Epoch: 06 July)

Event Time Altitude Azimuth Distance (km) Brightness Sun altitude
Rises 00:00:31 0° 288° (WNW) 3,383 5.5 -18.8°
Maximum altitude 00:06:32 10° 337° (NNW) 2,455 5.5 -18.7°
Drops below altitude 10° 00:06:56 10° 341° (NNW) 2,460 5.6 -18.7°
Sets 00:12:36 0° 27° (NNE) 3,397 6.6 -18.6°
